STARLINK-30106 (56288 NORAD) Tracking and Keplerian Element Data

This shows tracking and keplerian element data for the satellite.

Feedback or suggestion? Click here.




ElementValue
Catalog56288
NameSTARLINK-30106
Epoch Orbit324
Epoch Day127.25001157
Epoch Year2023
RAAN97.7674
Inclination43.0025
Eccentricity0.0001401
Argument of Perigee264.361
Mean Anonmoly121.86
Mean Motion15.39921835
Decay Rate-0.01354224
L11 56288U 23056C 23127.25001157 -.01354224 00000+0 -36461-1 0 9994
L22 56288 43.0025 97.7674 0001401 264.3610 121.8600 15.39921835 3246



Live tracking and technical data element details for STARLINK-30106 (NORAD 56288). STARLINK-30106 can be tracked NOW for your location showing map with azimuth and elevation plus other details from your city location.







IsCatalogInMostPopularTable: catalog: 56288, numindb: 4
Update: records affected: 1



GetName: 56288 STARLINK-30106

Hit Count: updated at: Wed, 07 Jun 2023 10:04:26 GMT